Lapse_Rate
1.6 1.3 0.8 -0.6 -0.9 -0.7 -0.1 0.3 0.9 0.9 0.2 -0.1 -0.5 -0.9 -0.6 -1.2 -1.1 0.0 1.1 1.5 1.4 1.5 0.6 -0.5 -1.0 -1.1 -1.9 -2.4 -2.2 -2.4 -2.3 -2.0 -2.5 -1.7 -0.8 0.8 1.9 2.0 1.5 1.5 1.0 1.3 1.3
1.1 0.8 -1.0 -1.2 -0.6 0.4 0.3 0.5 0.8 0.9 0.3 -0.6 -0.9 -1.0 -1.2 -1.3 -1.1 -0.2 0.5 1.0 1.3 1.6 1.0 -0.1 -0.8 -1.0 -1.4 -1.3 -1.7 -1.9 -1.8 -1.5 -1.8 -0.7 -1.1 0.4 2.0 1.8 1.8 0.8 1.6 1.2 0.9
2.1 1.2 -0.4 0.1 -0.0 0.7 0.6 0.9 0.7 0.3 0.2 -0.1 -0.8 -0.9 -1.1 -1.1 -0.7 -0.5 -0.8 0.1 1.0 1.2 1.0 0.5 -0.2 -0.8 -1.3 -1.2 -1.4 -1.5 -1.3 -1.3 -1.1 -0.7 0.5 1.5 2.0 -0.4 0.7 1.2 0.8 0.8 0.7
2.8 1.4 1.3 1.6 1.2 1.4 0.4 0.1 0.2 0.3 0.4 -0.2 -0.4 -0.2 -0.2 0.1 -0.3 -0.2 -0.7 -0.3 0.8 0.8 0.8 0.5 0.2 -0.4 -0.9 -1.0 -1.2 -0.3 -0.9 -0.9 -0.2 -0.4 1.0 0.5 1.6 1.9 1.2 0.5 0.4 -0.0 1.7
3.5 2.9 2.4 2.9 3.1 1.7 0.5 -0.1 -0.2 -0.1 0.3 -0.0 -0.4 -0.5 -0.4 -0.7 -0.6 -0.8 -0.7 -0.6 -0.0 0.4 0.6 0.6 0.3 -0.4 -0.7 -0.8 -0.8 -0.4 -0.6 -0.8 -0.4 -0.0 0.3 0.5 0.7 1.4 2.9 1.9 0.3 -0.0 0.5
3.7 3.4 3.6 3.2 2.1 0.6 0.1 -0.4 -0.4 -0.3 0.0 0.0 -0.2 -0.5 -0.2 -0.1 0.0 -0.1 -0.2 -0.4 -0.5 -0.7 0.1 0.6 0.2 0.0 -0.4 -0.6 -0.5 -0.5 -0.6 -0.5 -0.7 -0.3 0.1 0.8 1.8 1.6 2.4 2.3 0.2 0.5 0.4
3.2 3.0 2.5 1.5 1.2 0.6 -0.0 -0.1 -0.8 -0.4 -0.3 -0.4 -0.6 -0.6 -0.7 -0.3 0.0 0.2 0.2 0.4 0.1 -0.2 0.0 0.1 -0.4 -0.9 -0.1 0.1 -0.0 -0.3 -0.4 -0.4 -0.5 -0.3 -0.3 -0.1 0.1 0.8 1.2 1.9 1.9 1.9 0.3
2.3 2.0 1.5 0.6 0.4 0.4 -0.2 -1.0 -1.2 -0.5 -0.3 -0.2 -0.2 -0.6 -0.8 -0.9 -0.5 0.0 0.2 0.1 -0.1 -0.1 0.4 0.3 -0.0 -0.2 -0.1 -0.2 -0.4 -1.1 -1.0 -0.9 -1.2 -1.0 -1.1 -0.5 -0.2 0.0 0.7 1.9 2.3 3.0 2.1
2.5 1.9 1.5 0.5 0.1 -0.0 -0.3 -1.0 -0.7 -0.0 -0.1 -0.5 -0.4 -0.5 -0.7 -0.6 -0.3 0.0 -0.5 -0.5 -0.4 0.1 -0.6 -0.6 -0.7 -0.6 -0.6 -0.5 -0.6 -0.8 -0.5 -0.3 -0.4 -0.7 -0.6 -0.7 -0.4 -0.0 0.5 1.3 2.3 3.8 5.2
2.0 1.6 1.1 0.6 0.2 -0.1 -0.6 -0.3 0.1 0.7 0.4 0.0 -0.1 0.4 -0.1 -0.0 -0.3 -0.6 -0.5 -0.6 -0.6 -0.6 -0.5 -0.4 -0.5 -0.7 -0.8 -0.6 -0.4 -0.5 -0.3 -0.0 0.0 0.5 0.0 -0.2 -0.3 0.1 0.1 0.7 1.4 2.2 4.1
1.4 1.3 1.1 0.5 0.1 -0.2 -0.0 0.3 0.3 0.3 0.1 -0.2 -0.1 -0.0 -0.1 -0.1 -0.3 -0.4 -0.4 -0.5 -0.7 -0.6 -0.7 -0.6 -0.6 -0.7 -0.6 -0.6 -0.4 -0.2 0.0 0.3 0.6 0.3 0.3 0.5 0.1 0.3 0.3 0.4 0.9 1.6 2.4
1.0 1.0 0.9 0.3 0.2 0.2 0.5 0.6 0.6 0.5 0.2 0.0 0.1 0.0 -0.1 -0.5 -0.6 -0.5 -0.4 -0.6 -0.8 -0.8 -0.8 -0.7 -0.8 -0.6 -0.6 -0.6 -0.5 0.4 1.6 0.5 1.0 1.1 0.7 1.0 1.7 0.4 0.2 0.6 0.8 1.3 1.3
1.5 1.2 0.9 0.4 0.4 0.7 1.0 0.9 0.7 0.3 -0.1 -0.3 -0.4 -0.4 -0.8 -1.0 -1.1 -1.0 -0.9 -0.5 -0.6 -0.6 -0.7 -0.5 -0.7 -0.6 -0.5 -0.8 -0.7 0.2 1.0 1.1 1.4 1.5 1.0 1.6 0.6 1.4 0.6 1.1 1.7 1.0 2.2
2.1 1.4 1.1 0.8 0.8 1.1 1.1 0.8 0.6 -0.2 -0.4 -0.3 -0.5 -0.6 -1.0 -1.3 -1.4 -1.3 -1.1 -0.9 -0.6 -0.7 -0.4 -0.3 -0.2 -0.1 0.3 0.5 0.5 0.7 0.7 1.2 1.5 1.6 1.6 1.9 1.3 1.8 1.4 1.9 2.1 2.1 1.6
2.4 2.1 1.9 1.6 1.4 1.2 1.0 0.7 0.4 -0.0 -0.5 -0.4 -0.5 -0.6 -0.9 -1.0 -1.2 -1.1 -1.0 -0.9 -0.8 -0.1 -0.4 -0.2 0.4 0.2 0.8 1.5 0.9 0.8 1.5 1.5 1.5 1.5 1.5 1.6 2.0 3.1 3.2 3.1 2.5 2.5 1.5
2.5 2.5 3.0 3.0 2.0 1.2 1.0 0.9 0.4 0.1 -0.4 -0.4 -0.4 -0.4 -0.5 -0.7 -0.5 -0.6 -0.3 -0.3 -0.4 -0.2 -0.1 0.3 0.7 1.0 1.9 3.2 3.9 4.3 3.4 1.8 2.0 2.0 1.6 1.7 3.1 3.3 4.8 5.2 4.7 3.2 3.3
2.4 2.6 2.8 2.3 1.9 1.5 1.1 1.0 0.4 -0.1 -0.2 -0.3 -0.1 -0.1 0.0 0.2 0.7 0.8 0.7 1.2 1.2 0.8 0.8 0.9 1.4 2.2 2.4 3.9 4.3 4.6 4.1 3.9 3.1 2.5 2.5 2.3 2.8 3.0 2.8 5.3 6.0 6.0 5.2
2.1 2.3 1.9 2.1 1.8 1.2 1.0 0.4 0.4 0.5 0.2 0.1 0.3 1.0 1.3 1.4 1.5 1.2 1.5 1.7 2.1 2.0 1.9 1.8 1.6 2.0 2.6 4.2 4.8 5.0 4.3 3.9 3.8 2.9 2.8 2.8 3.1 2.5 2.9 3.6 4.3 5.2 4.9
1.7 1.9 1.7 1.8 1.5 1.1 0.9 0.7 1.3 0.7 0.6 1.0 1.0 1.5 1.6 1.8 2.1 2.0 2.2 2.5 2.3 2.6 2.5 2.9 2.7 2.8 2.8 4.0 4.8 5.0 4.2 4.1 3.8 3.9 3.3 3.1 3.3 4.2 5.5 3.9 3.8 4.0 4.2
2.0 2.1 1.8 1.7 1.6 1.9 0.8 0.9 1.5 1.3 1.6 1.4 1.6 1.6 1.8 1.8 1.9 2.2 2.1 2.0 2.3 2.9 3.2 3.3 3.1 3.2 3.2 3.9 4.7 5.6 5.7 5.9 5.3 4.4 3.8 4.8 4.7 5.0 5.6 5.8 4.5 5.0 4.2
2.4 3.2 2.9 2.3 2.4 1.7 1.1 1.5 1.3 1.4 1.5 1.0 1.2 1.5 1.5 1.4 1.5 1.5 2.3 2.7 2.9 3.1 2.8 2.7 2.9 2.6 2.4 2.2 4.8 6.0 6.6 6.4 6.7 6.5 5.1 4.4 6.0 6.5 6.0 8.0 5.3 4.6 5.2
3.5 3.5 2.9 2.8 2.8 2.2 1.6 1.3 1.1 1.9 1.2 0.9 0.9 1.1 1.4 1.7 2.6 1.8 2.1 2.3 2.4 2.8 3.2 3.3 3.2 5.0 5.4 6.5 6.9 7.0 7.7 7.7 7.3 7.0 6.7 6.2 6.3 6.2 6.8 7.2 6.5 6.6 6.2
3.4 3.1 2.6 1.8 1.9 1.9 1.3 1.0 1.3 1.5 1.5 0.9 1.1 1.3 1.6 1.9 2.2 1.8 2.1 2.7 2.8 3.3 3.9 6.7 7.5 7.8 7.8 7.6 8.2 8.5 7.9 7.3 6.9 6.6 7.0 7.0 6.0 5.8 6.0 7.1 7.1 6.9 6.3
3.7 3.2 2.7 2.3 1.9 1.9 1.2 0.4 0.7 1.4 1.3 1.1 1.4 1.8 1.6 2.1 2.6 2.5 2.6 2.5 3.2 4.0 4.9 6.0 6.8 7.6 8.0 7.8 7.1 7.5 7.2 6.8 6.2 6.0 5.4 6.4 5.8 6.0 5.9 6.2 6.4 5.8 5.6
3.4 2.9 2.6 2.1 1.7 1.3 1.2 1.7 1.7 1.2 1.3 1.5 1.7 1.8 2.2 1.8 1.9 2.6 3.3 4.0 4.5 5.5 6.1 7.0 7.2 7.0 6.9 7.5 8.2 8.0 7.5 7.5 7.2 5.8 5.3 5.8 5.5 5.4 5.1 4.8 5.0 5.2 5.6
2.9 2.5 2.2 1.4 1.5 1.3 1.6 2.0 2.0 1.3 1.2 1.9 2.3 2.4 3.0 2.9 3.0 3.5 3.6 4.5 6.6 7.9 8.0 8.3 8.1 8.3 8.6 8.2 8.1 7.7 7.9 8.0 7.8 6.7 5.9 6.2 6.4 5.6 5.0 5.0 5.5 5.7 6.0
Wind_Speed
3 3 3 5 6 4 5 4 3 2 1 0 0 0 2 1 2 5 5 3 2 2 3 3 5 7 4 4 5 4 4 2 4 3 3 2 1 3 3 4 4 5 7
6 4 4 4 5 4 4 3 4 3 3 2 1 1 1 1 3 4 5 5 4 3 2 2 2 3 3 4 4 4 3 2 4 3 1 3 3 2 1 2 4 4 5
5 2 4 5 4 3 4 4 6 5 4 3 1 1 1 1 2 2 3 5 7 6 4 3 2 2 1 2 2 2 3 2 2 3 1 3 2 3 2 1 1 4 2
2 2 4 4 4 5 4 6 6 5 4 4 3 4 3 2 3 1 2 4 6 7 7 6 5 3 2 2 2 1 1 0 2 2 1 1 1 1 4 2 1 4 2
3 3 4 4 2 3 5 5 5 6 6 5 6 4 4 4 2 3 5 4 6 8 8 8 7 5 4 3 4 3 3 1 1 1 1 1 1 1 2 4 3 3 3
4 4 2 2 3 5 5 6 6 7 6 5 6 7 7 5 4 4 4 4 3 4 8 9 9 9 6 4 4 4 4 4 3 2 3 2 2 2 3 3 3 3 3
4 3 5 5 5 6 7 6 6 7 5 5 6 7 8 6 7 6 4 5 3 3 5 6 6 4 8 8 7 5 5 4 3 4 4 3 4 3 3 3 3 3 2
3 5 5 4 5 6 7 7 8 7 7 5 6 5 6 4 4 5 4 4 4 5 5 6 8 9 10 9 8 4 5 6 5 7 6 4 5 4 3 3 3 2 2
4 5 4 4 5 6 6 7 7 7 7 6 5 4 4 5 5 6 5 4 5 4 6 8 6 7 8 8 6 5 6 5 5 6 6 5 4 4 4 3 3 3 2
5 4 3 4 4 4 5 6 6 5 6 6 5 4 4 3 4 4 6 6 6 5 6 7 7 7 6 6 6 6 6 6 5 5 6 6 4 5 4 5 4 4 5
6 3 2 3 4 4 5 6 7 7 7 6 6 6 6 6 5 4 5 6 5 6 6 7 7 7 7 7 7 9 8 9 9 7 7 9 6 5 5 4 4 5 5
6 3 2 3 5 6 6 6 6 6 6 6 6 6 6 6 6 6 6 6 7 6 6 6 6 7 7 7 9 10 10 10 11 12 9 11 7 8 7 5 8 7 6
6 3 3 4 4 5 5 5 6 6 6 6 6 7 7 7 7 7 7 6 7 7 7 6 6 7 7 7 8 10 11 11 13 12 11 13 10 11 7 8 8 7 6
5 3 2 2 3 3 4 5 6 5 6 6 5 6 6 6 6 6 7 7 7 7 7 7 7 7 8 9 9 9 11 12 12 13 12 13 12 13 11 10 10 8 7
5 4 3 1 1 3 4 4 5 5 5 6 6 7 6 6 6 7 7 7 7 7 7 7 8 7 7 7 7 9 11 12 12 12 13 13 16 22 18 9 10 10 8
7 6 5 3 1 1 3 4 5 6 5 6 6 6 6 7 7 7 7 7 7 7 7 8 8 9 7 18 21 18 11 11 12 13 13 13 19 21 25 25 22 15 10
7 7 6 4 2 1 2 3 5 5 6 6 6 6 6 7 7 7 8 10 9 8 9 9 9 11 11 21 23 24 13 12 11 13 12 11 10 18 14 23 25 23 22
8 7 5 3 3 2 2 3 4 4 5 6 6 6 6 7 8 7 8 9 9 10 10 10 10 11 10 23 25 26 14 12 13 13 14 14 12 12 13 13 13 13 12
7 5 5 3 2 3 3 3 4 4 4 5 6 6 7 8 9 10 11 10 9 10 10 10 11 12 13 23 26 23 13 13 14 12 13 13 13 20 25 12 13 11 9
5 5 4 3 3 3 3 4 5 5 5 5 7 7 7 8 10 10 11 7 9 10 10 13 12 16 15 22 25 21 10 14 11 12 11 23 19 23 25 14 12 12 10
7 4 4 3 3 3 3 5 5 6 6 6 7 8 8 8 9 7 8 9 11 12 12 13 11 11 12 14 24 25 13 11 12 12 10 10 23 26 24 24 11 12 9
6 5 2 2 2 3 3 6 6 6 6 6 7 9 9 8 9 10 11 10 10 11 11 12 12 10 12 18 19 25 24 21 13 13 11 12 21 20 22 19 21 20 15
3 2 2 5 4 4 4 6 6 6 7 7 9 9 9 10 10 10 11 8 9 8 9 9 10 12 13 13 25 25 24 23 13 10 17 20 19 19 18 24 19 20 9
3 2 2 5 7 5 5 6 7 6 7 8 9 8 8 11 9 7 7 7 8 8 9 9 10 11 14 14 11 10 11 14 12 13 10 13 14 15 10 10 11 7 5
2 1 3 5 8 6 8 10 7 6 8 7 8 8 7 9 9 9 8 8 10 10 10 10 11 11 12 13 22 20 14 12 14 12 5 6 5 6 5 4 4 3 5
2 4 5 6 8 7 9 11 7 6 7 8 7 7 8 8 8 8 11 17 20 22 23 23 17 12 19 26 28 28 27 27 27 9 5 6 6 6 6 6 6 5 7
Wind_Direction
296 303 191 151 145 155 176 199 206 231 130 283 37 316 262 303 288 277 281 305 331 343 29 21 5 358 2 342 349 332 358 334 335 349 352 343 55 69 69 64 67 49 51
337 15 109 138 162 169 203 231 249 243 216 195 208 207 217 264 256 270 282 269 270 285 320 9 347 354 351 350 358 19 339 332 11 14 293 354 328 343 222 83 68 31 41
334 60 140 162 174 198 229 248 253 241 230 215 204 269 296 311 293 268 276 260 247 255 251 255 255 290 310 326 333 348 24 341 314 32 96 355 312 324 323 255 60 17 36
16 112 150 169 203 243 256 263 270 257 246 214 215 213 216 231 230 235 257 290 266 261 253 248 245 246 230 257 263 229 227 165 296 329 12 267 220 260 322 314 328 339 354
52 151 185 211 248 304 291 295 293 276 254 227 220 223 246 236 261 270 280 278 270 262 261 255 251 243 235 243 244 260 251 234 272 211 336 346 308 278 237 293 318 338 303
91 96 122 50 4 0 355 331 304 284 276 251 239 233 241 252 266 265 270 264 266 266 259 257 247 248 240 232 236 235 233 238 243 253 240 214 230 226 217 256 292 269 285
107 79 66 46 27 17 4 345 345 317 305 272 260 240 238 236 243 256 252 272 272 254 255 241 241 238 239 239 233 227 230 227 217 220 230 222 222 199 201 201 247 279 299
101 85 71 59 34 18 9 3 359 350 343 327 299 272 246 230 234 243 249 252 244 250 254 251 242 240 237 232 225 217 218 213 217 220 216 224 226 209 202 205 181 300 283
111 106 71 51 30 15 3 357 351 350 357 339 323 319 286 252 250 257 247 252 260 254 246 246 246 241 236 230 225 231 233 224 224 228 222 223 232 227 225 211 186 178 279
124 120 65 30 16 13 352 4 359 346 336 344 358 351 337 295 271 276 286 276 274 271 272 265 252 251 241 231 224 234 235 229 236 231 223 224 215 220 213 212 205 202 215
165 148 67 27 18 16 11 4 5 358 358 358 355 9 6 5 359 335 312 300 291 281 272 268 265 253 246 233 226 234 233 223 237 227 220 236 205 223 215 207 204 213 197
162 134 77 34 24 15 10 7 360 2 355 351 5 15 13 11 10 353 336 327 314 306 287 286 276 268 254 244 229 239 238 225 231 234 216 234 218 224 214 209 217 216 201
151 125 63 38 19 12 6 4 360 356 357 4 9 9 9 5 353 342 332 329 323 317 310 294 284 278 269 259 244 238 244 234 234 232 220 229 207 224 215 213 221 217 218
158 131 88 45 17 6 2 2 353 354 350 355 2 6 356 347 340 330 328 325 320 315 312 304 287 279 276 269 261 247 244 243 241 237 230 228 214 220 215 216 218 216 215
162 159 152 128 42 17 6 357 353 350 347 358 0 350 335 333 328 329 324 316 312 311 297 303 308 296 289 283 274 258 254 249 248 241 236 231 223 220 215 208 213 207 209
179 172 162 150 109 5 352 351 347 345 348 354 345 327 333 335 323 309 303 303 303 309 308 309 304 302 300 302 302 296 272 252 249 251 244 238 233 229 227 225 219 207 202
174 177 177 177 199 257 305 341 329 326 349 342 334 335 324 308 302 306 315 319 315 306 306 305 304 305 300 302 302 298 289 275 250 247 249 243 235 227 220 228 227 223 219
178 184 177 189 214 245 294 318 332 325 322 326 317 302 295 307 313 312 308 308 309 305 300 295 288 291 294 300 304 303 295 282 267 243 241 240 239 224 215 215 217 219 219
179 177 174 187 211 274 293 323 316 306 310 296 293 313 315 310 311 311 308 303 299 302 300 300 299 297 297 301 306 310 302 291 280 265 243 237 234 232 229 212 211 215 220
161 176 188 182 228 288 322 326 321 307 302 305 308 301 301 299 297 293 295 291 296 297 303 302 296 292 295 294 302 308 299 299 294 282 257 246 238 238 230 211 205 210 214
175 174 178 202 239 287 303 307 308 315 296 296 296 297 289 280 280 280 297 301 302 302 297 293 292 286 281 287 300 306 305 300 299 290 274 252 244 238 234 221 198 209 195
169 173 226 268 282 273 292 315 306 281 288 291 292 287 288 294 300 296 293 290 288 292 295 301 300 299 292 290 297 304 305 302 303 292 278 262 249 245 231 226 217 215 213
160 173 255 304 282 268 230 283 273 286 293 288 285 289 293 291 287 282 283 289 287 285 288 295 301 305 307 307 307 308 308 304 295 291 289 263 250 235 235 233 220 213 203
183 208 302 311 302 302 291 241 275 279 276 277 282 287 285 290 285 276 279 275 279 278 281 292 296 302 307 310 312 304 299 294 283 284 292 276 231 220 219 224 232 206 192
204 243 281 287 285 295 294 298 288 270 275 278 281 284 283 281 285 282 281 280 274 271 281 288 294 301 304 305 304 305 308 305 297 268 271 271 228 211 199 187 180 167 188
260 265 264 263 280 282 285 289 290 270 278 292 289 284 291 290 286 290 295 286 289 292 290 285 284 290 295 302 305 307 307 307 302 282 257 252 234 208 191 183 187 192 198